QPF
0.03 0.02 0.02 0.04 0.02 0.00 0.00 0.00 0.00 0.00 0.00 0.00 0.00 0.00 0.00 0.00 0.00 0.00 0.00 0.00 0.00 0.00 0.00 0.01 0.03 0.00 0.00 0.00 0.00 0.00 0.00 0.00 0.00 0.04 0.03 0.02 0.02 0.03 0.04 0.00 0.00 0.00 0.00
0.07 0.03 0.02 0.01 0.00 0.00 0.00 0.00 0.00 0.00 0.00 0.00 0.00 0.00 0.00 0.00 0.00 0.00 0.00 0.00 0.00 0.00 0.00 0.00 0.00 0.00 0.00 0.00 0.00 0.00 0.00 0.02 0.01 0.05 0.08 0.06 0.04 0.04 0.05 0.01 0.00 0.00 0.00
0.00 0.00 0.00 0.00 0.00 0.00 0.00 0.00 0.00 0.00 0.00 0.00 0.00 0.00 0.00 0.00 0.00 0.00 0.00 0.00 0.00 0.00 0.00 0.00 0.00 0.00 0.00 0.00 0.00 0.02 0.01 0.01 0.00 0.00 0.06 0.10 0.11 0.12 0.14 0.08 0.01 0.00 0.00
0.00 0.00 0.00 0.00 0.00 0.00 0.00 0.00 0.00 0.00 0.00 0.00 0.00 0.00 0.00 0.00 0.00 0.00 0.00 0.00 0.00 0.00 0.00 0.00 0.00 0.00 0.00 0.00 0.00 0.00 0.00 0.00 0.01 0.01 0.01 0.05 0.11 0.15 0.19 0.15 0.06 0.01 0.00
0.00 0.00 0.00 0.00 0.00 0.00 0.00 0.00 0.00 0.00 0.00 0.00 0.00 0.00 0.00 0.00 0.00 0.00 0.00 0.00 0.00 0.00 0.00 0.00 0.00 0.00 0.00 0.00 0.00 0.00 0.00 0.00 0.00 0.00 0.01 0.01 0.03 0.07 0.12 0.13 0.09 0.04 0.00
0.00 0.00 0.00 0.00 0.00 0.00 0.00 0.00 0.00 0.00 0.00 0.00 0.00 0.00 0.00 0.00 0.00 0.00 0.00 0.00 0.00 0.00 0.00 0.00 0.00 0.00 0.00 0.00 0.00 0.00 0.00 0.00 0.00 0.00 0.00 0.00 0.00 0.01 0.05 0.07 0.07 0.05 0.02
0.00 0.00 0.00 0.00 0.00 0.00 0.00 0.00 0.00 0.00 0.00 0.00 0.00 0.00 0.00 0.00 0.00 0.00 0.00 0.00 0.00 0.00 0.00 0.00 0.00 0.00 0.00 0.00 0.00 0.00 0.00 0.00 0.00 0.00 0.00 0.00 0.00 0.01 0.02 0.05 0.08 0.09 0.06
0.00 0.00 0.00 0.00 0.00 0.00 0.00 0.00 0.00 0.00 0.00 0.00 0.00 0.00 0.00 0.00 0.00 0.00 0.00 0.00 0.00 0.00 0.00 0.00 0.00 0.00 0.00 0.00 0.00 0.00 0.00 0.00 0.00 0.00 0.00 0.00 0.00 0.00 0.00 0.01 0.03 0.06 0.08
0.00 0.00 0.00 0.00 0.00 0.00 0.00 0.00 0.00 0.00 0.00 0.00 0.00 0.00 0.00 0.00 0.00 0.00 0.00 0.00 0.00 0.00 0.00 0.00 0.00 0.00 0.00 0.00 0.00 0.00 0.00 0.00 0.00 0.00 0.00 0.00 0.00 0.00 0.00 0.00 0.01 0.02 0.04
0.00 0.00 0.00 0.00 0.00 0.00 0.00 0.00 0.00 0.00 0.00 0.00 0.00 0.00 0.00 0.00 0.00 0.00 0.00 0.00 0.00 0.00 0.00 0.00 0.00 0.00 0.00 0.00 0.00 0.00 0.00 0.00 0.00 0.00 0.00 0.00 0.00 0.00 0.00 0.00 0.00 0.00 0.01
0.00 0.00 0.00 0.00 0.00 0.00 0.00 0.00 0.00 0.00 0.00 0.00 0.00 0.00 0.00 0.00 0.00 0.00 0.00 0.00 0.00 0.00 0.00 0.00 0.00 0.00 0.00 0.00 0.00 0.00 0.00 0.00 0.00 0.00 0.00 0.00 0.00 0.00 0.00 0.00 0.00 0.00 0.00
0.00 0.00 0.00 0.00 0.00 0.00 0.00 0.00 0.00 0.00 0.00 0.00 0.00 0.00 0.00 0.00 0.00 0.00 0.00 0.00 0.00 0.00 0.00 0.00 0.00 0.00 0.00 0.00 0.00 0.00 0.00 0.00 0.00 0.00 0.00 0.00 0.00 0.00 0.00 0.00 0.00 0.00 0.00
0.00 0.00 0.00 0.00 0.00 0.00 0.00 0.00 0.00 0.00 0.00 0.00 0.00 0.00 0.00 0.00 0.00 0.00 0.00 0.00 0.00 0.00 0.00 0.00 0.00 0.00 0.00 0.00 0.00 0.00 0.00 0.00 0.00 0.00 0.00 0.00 0.00 0.00 0.00 0.00 0.00 0.00 0.00
0.00 0.00 0.00 0.00 0.00 0.00 0.00 0.00 0.00 0.00 0.00 0.00 0.00 0.00 0.00 0.00 0.00 0.00 0.00 0.00 0.01 0.00 0.00 0.00 0.00 0.00 0.00 0.00 0.00 0.00 0.00 0.00 0.00 0.00 0.00 0.00 0.00 0.00 0.00 0.00 0.00 0.00 0.00
0.00 0.00 0.00 0.00 0.00 0.00 0.00 0.00 0.00 0.00 0.00 0.00 0.00 0.00 0.00 0.00 0.00 0.00 0.00 0.00 0.02 0.01 0.00 0.00 0.00 0.00 0.00 0.00 0.00 0.00 0.00 0.00 0.00 0.00 0.00 0.00 0.00 0.00 0.00 0.00 0.00 0.00 0.00
0.00 0.00 0.00 0.00 0.00 0.00 0.00 0.00 0.00 0.00 0.00 0.00 0.00 0.00 0.00 0.00 0.00 0.00 0.00 0.00 0.01 0.02 0.02 0.00 0.00 0.00 0.00 0.00 0.00 0.00 0.00 0.00 0.00 0.00 0.00 0.00 0.00 0.00 0.00 0.00 0.00 0.00 0.00
0.00 0.00 0.00 0.00 0.00 0.00 0.00 0.00 0.00 0.00 0.00 0.00 0.00 0.00 0.00 0.00 0.00 0.00 0.00 0.00 0.00 0.01 0.02 0.00 0.00 0.00 0.00 0.00 0.00 0.00 0.00 0.00 0.00 0.00 0.00 0.00 0.00 0.00 0.00 0.00 0.00 0.00 0.00
0.00 0.00 0.00 0.00 0.00 0.00 0.00 0.00 0.00 0.00 0.00 0.00 0.00 0.00 0.00 0.00 0.00 0.00 0.00 0.00 0.00 0.01 0.03 0.02 0.00 0.00 0.00 0.00 0.00 0.00 0.00 0.00 0.00 0.00 0.00 0.00 0.00 0.00 0.00 0.00 0.00 0.00 0.00
0.00 0.00 0.00 0.00 0.00 0.00 0.00 0.00 0.00 0.00 0.00 0.00 0.00 0.00 0.00 0.00 0.00 0.00 0.00 0.00 0.00 0.00 0.00 0.00 0.00 0.00 0.00 0.00 0.00 0.00 0.00 0.00 0.00 0.00 0.00 0.00 0.00 0.00 0.00 0.00 0.00 0.00 0.00
0.00 0.00 0.00 0.00 0.00 0.00 0.00 0.00 0.00 0.00 0.00 0.00 0.00 0.00 0.00 0.00 0.00 0.00 0.00 0.00 0.00 0.00 0.00 0.00 0.00 0.00 0.00 0.00 0.00 0.00 0.00 0.00 0.00 0.00 0.00 0.00 0.00 0.00 0.00 0.00 0.00 0.00 0.00
0.00 0.00 0.00 0.00 0.00 0.00 0.00 0.00 0.00 0.00 0.00 0.00 0.00 0.00 0.00 0.00 0.00 0.00 0.00 0.00 0.00 0.00 0.00 0.00 0.00 0.00 0.00 0.00 0.00 0.00 0.00 0.00 0.00 0.00 0.00 0.00 0.00 0.00 0.00 0.00 0.00 0.00 0.00
0.00 0.00 0.00 0.00 0.00 0.00 0.00 0.00 0.00 0.00 0.00 0.00 0.00 0.00 0.00 0.00 0.00 0.00 0.00 0.00 0.00 0.00 0.00 0.00 0.00 0.00 0.00 0.00 0.00 0.00 0.00 0.00 0.00 0.00 0.00 0.00 0.00 0.00 0.00 0.00 0.00 0.00 0.00
0.00 0.00 0.00 0.00 0.00 0.00 0.00 0.00 0.00 0.00 0.00 0.00 0.00 0.00 0.00 0.00 0.00 0.00 0.00 0.00 0.00 0.00 0.00 0.00 0.00 0.00 0.00 0.00 0.00 0.00 0.00 0.00 0.00 0.00 0.00 0.00 0.00 0.00 0.00 0.00 0.00 0.00 0.00
0.00 0.00 0.00 0.00 0.00 0.00 0.00 0.00 0.00 0.00 0.00 0.00 0.00 0.00 0.00 0.00 0.00 0.00 0.00 0.00 0.00 0.00 0.00 0.00 0.00 0.00 0.00 0.00 0.00 0.00 0.00 0.00 0.00 0.00 0.00 0.00 0.00 0.00 0.00 0.00 0.00 0.00 0.00
0.00 0.00 0.00 0.00 0.00 0.00 0.00 0.00 0.00 0.00 0.00 0.00 0.00 0.00 0.00 0.00 0.00 0.00 0.00 0.00 0.00 0.00 0.00 0.00 0.00 0.00 0.00 0.00 0.00 0.00 0.00 0.00 0.00 0.00 0.00 0.00 0.00 0.00 0.00 0.00 0.00 0.00 0.00
0.00 0.00 0.00 0.00 0.00 0.00 0.00 0.00 0.00 0.00 0.00 0.00 0.00 0.00 0.00 0.00 0.00 0.00 0.00 0.00 0.00 0.00 0.00 0.00 0.00 0.00 0.00 0.00 0.00 0.00 0.00 0.00 0.00 0.00 0.00 0.00 0.00 0.00 0.00 0.00 0.00 0.00 0.00
MSLP
1020.18 1019.99 1020.39 1020.48 1020.53 1020.46 1020.13 1020.08 1020.24 1020.30 1020.36 1020.40 1020.43 1020.48 1020.17 1020.20 1020.12 1020.20 1020.12 1020.16 1020.02 1019.81 1019.67 1019.62 1019.77 1019.78 1019.86 1019.90 1019.89 1019.95 1020.00 1020.04 1020.05 1020.12 1020.17 1020.26 1020.33 1020.47 1020.66 1020.80 1020.97 1021.15 1021.30
1020.25 1020.54 1020.39 1020.53 1020.71 1020.73 1020.52 1020.29 1020.34 1020.38 1020.45 1020.56 1020.67 1020.79 1020.54 1020.43 1020.12 1020.22 1020.25 1020.27 1020.22 1020.07 1019.87 1019.77 1019.80 1019.84 1019.86 1019.91 1019.85 1019.81 1019.86 1019.85 1019.88 1019.89 1019.95 1019.98 1020.06 1020.14 1020.27 1020.47 1020.58 1020.75 1020.97
1020.44 1020.59 1020.61 1020.97 1020.96 1020.93 1020.63 1020.76 1020.79 1020.73 1020.74 1020.77 1020.74 1020.77 1020.52 1020.27 1020.34 1020.45 1020.44 1020.25 1020.18 1020.20 1020.08 1019.87 1019.94 1019.91 1019.92 1019.79 1019.75 1019.69 1019.68 1019.69 1019.65 1019.64 1019.64 1019.70 1019.72 1019.89 1019.97 1020.10 1020.05 1020.32 1020.57
1020.61 1020.82 1020.90 1021.04 1021.16 1021.12 1020.84 1020.94 1020.93 1020.99 1021.04 1020.89 1020.78 1020.60 1020.37 1020.48 1020.41 1020.37 1020.34 1020.31 1020.32 1020.19 1020.11 1020.13 1020.12 1020.04 1019.98 1019.90 1019.81 1019.68 1019.67 1019.46 1019.46 1019.36 1019.33 1019.41 1019.39 1019.52 1019.71 1019.79 1019.79 1019.89 1020.05
1021.16 1020.89 1021.13 1021.25 1021.18 1021.19 1021.20 1021.28 1021.26 1021.26 1021.10 1020.94 1020.73 1020.54 1020.39 1020.46 1020.36 1020.32 1020.31 1020.16 1020.20 1020.10 1020.10 1020.18 1020.25 1020.16 1020.09 1019.99 1019.84 1019.66 1019.54 1019.39 1019.36 1019.27 1019.14 1019.03 1019.05 1019.11 1019.31 1019.40 1019.47 1019.53 1019.66
1021.58 1021.42 1021.46 1021.45 1021.30 1021.34 1021.32 1021.55 1021.48 1021.33 1021.35 1021.23 1020.82 1020.64 1020.56 1020.61 1020.52 1020.37 1020.20 1020.11 1020.16 1020.16 1020.17 1020.14 1020.07 1020.07 1020.19 1019.93 1019.81 1019.62 1019.57 1019.43 1019.29 1019.22 1019.04 1018.94 1018.91 1018.84 1018.86 1018.94 1019.02 1019.11 1019.30
1021.85 1021.90 1021.87 1021.78 1021.76 1021.66 1021.70 1021.69 1021.58 1021.55 1021.60 1021.42 1020.88 1020.65 1020.68 1020.61 1020.62 1020.56 1020.38 1020.21 1020.15 1020.33 1020.18 1020.15 1020.09 1020.02 1020.03 1020.11 1019.91 1019.74 1019.70 1019.47 1019.22 1019.16 1019.00 1018.93 1018.92 1018.75 1018.63 1018.64 1018.50 1018.61 1018.78
1022.12 1022.21 1022.12 1022.20 1022.15 1022.11 1022.11 1022.12 1021.92 1021.79 1022.00 1021.99 1021.53 1021.36 1020.93 1020.77 1020.73 1020.84 1020.66 1020.56 1020.42 1020.41 1020.38 1020.40 1020.27 1020.21 1020.17 1020.01 1019.86 1019.83 1019.67 1019.50 1019.25 1019.13 1018.97 1018.94 1018.85 1018.70 1018.59 1018.28 1018.14 1018.09 1018.14
1022.34 1022.43 1022.48 1022.50 1022.52 1022.49 1022.58 1022.55 1022.44 1022.42 1022.39 1022.29 1022.11 1021.93 1021.66 1021.46 1021.39 1020.90 1020.85 1020.86 1020.70 1020.65 1020.56 1020.57 1020.44 1020.29 1020.27 1020.15 1019.94 1019.67 1019.59 1019.51 1019.27 1019.07 1018.93 1018.85 1018.71 1018.51 1018.19 1017.96 1017.89 1017.81 1017.65
1022.57 1022.64 1022.81 1022.92 1022.81 1022.75 1022.81 1022.75 1022.73 1022.71 1022.53 1022.57 1022.47 1022.56 1022.51 1022.38 1022.11 1021.38 1020.96 1020.83 1020.98 1020.90 1020.83 1020.61 1020.46 1020.24 1020.35 1020.25 1020.05 1019.87 1019.62 1019.56 1019.25 1019.17 1018.91 1018.65 1018.46 1018.22 1017.97 1017.84 1017.57 1017.54 1017.47
1022.82 1023.04 1023.17 1023.26 1023.25 1023.18 1023.20 1023.11 1023.01 1023.02 1023.10 1023.06 1022.94 1022.90 1022.91 1022.78 1022.76 1022.59 1021.57 1021.00 1021.09 1021.03 1020.79 1020.61 1020.41 1020.30 1020.25 1020.24 1020.05 1019.92 1019.75 1019.70 1019.42 1019.09 1018.82 1018.57 1018.38 1018.23 1018.06 1017.94 1017.82 1017.65 1017.51
1023.12 1023.30 1023.46 1023.48 1023.45 1023.42 1023.33 1023.35 1023.36 1023.26 1023.20 1023.21 1023.23 1023.26 1023.14 1023.03 1022.93 1023.16 1022.78 1022.32 1022.10 1021.25 1020.89 1020.38 1020.17 1020.07 1020.08 1020.08 1020.21 1020.24 1020.01 1019.64 1019.39 1019.11 1018.76 1018.63 1018.60 1018.51 1018.39 1018.17 1017.99 1017.71 1017.39
1023.35 1023.45 1023.47 1023.60 1023.67 1023.77 1023.58 1023.30 1023.25 1023.39 1023.35 1023.17 1023.14 1023.13 1023.00 1022.83 1023.06 1023.09 1023.05 1022.74 1022.26 1021.42 1020.82 1020.34 1019.81 1019.86 1020.02 1020.03 1020.11 1020.21 1020.19 1019.97 1019.63 1019.26 1018.96 1018.91 1019.01 1018.86 1018.59 1018.22 1017.81 1017.52 1017.25
1023.49 1023.66 1023.58 1023.69 1023.71 1023.82 1023.75 1023.69 1023.32 1023.18 1023.19 1023.18 1023.02 1022.91 1022.76 1022.65 1022.74 1022.87 1022.90 1022.67 1021.99 1021.25 1020.77 1020.21 1019.76 1019.72 1019.98 1020.00 1020.11 1020.13 1020.18 1020.21 1019.96 1019.67 1019.47 1019.41 1019.17 1018.96 1018.63 1018.21 1017.91 1017.64 1017.24
1023.30 1023.52 1023.65 1023.56 1023.60 1023.80 1023.73 1023.66 1023.61 1023.36 1023.16 1023.04 1022.84 1022.62 1022.46 1022.35 1022.35 1022.41 1022.49 1022.48 1022.24 1021.38 1020.73 1020.20 1019.83 1019.71 1019.90 1019.94 1020.06 1020.14 1020.25 1020.39 1020.23 1019.91 1019.64 1019.33 1019.13 1018.96 1018.71 1018.48 1018.26 1017.84 1017.32
1023.50 1023.34 1023.62 1023.63 1023.66 1023.60 1023.84 1023.58 1023.56 1023.47 1023.31 1023.01 1022.72 1022.47 1022.26 1022.10 1022.01 1021.98 1021.97 1021.95 1021.86 1021.53 1020.86 1020.39 1019.93 1019.87 1019.73 1019.98 1020.12 1020.22 1020.26 1020.33 1020.29 1019.84 1019.29 1019.15 1019.08 1019.05 1019.06 1018.79 1018.43 1017.88 1017.44
1023.30 1023.61 1023.54 1023.57 1023.59 1023.86 1023.74 1023.47 1023.42 1023.25 1023.02 1022.81 1022.72 1022.33 1022.11 1021.98 1021.72 1021.65 1021.49 1021.33 1021.20 1021.14 1020.70 1020.24 1020.05 1019.86 1019.82 1019.87 1020.10 1020.22 1020.31 1020.33 1020.33 1019.93 1019.45 1019.39 1019.35 1019.20 1019.13 1018.96 1018.64 1018.10 1017.69
1023.50 1023.46 1023.59 1023.61 1023.76 1023.81 1023.66 1023.31 1023.33 1023.36 1023.05 1022.76 1022.58 1022.29 1022.04 1021.78 1021.49 1021.37 1021.10 1020.87 1020.72 1020.67 1020.30 1019.91 1019.88 1019.83 1019.85 1019.97 1020.12 1020.34 1020.56 1020.62 1020.54 1020.30 1019.99 1019.73 1019.64 1019.48 1019.34 1019.21 1019.06 1018.65 1018.20
1023.57 1023.53 1023.69 1023.72 1023.88 1023.77 1023.66 1023.43 1023.30 1023.26 1022.88 1022.63 1022.45 1022.19 1021.92 1021.66 1021.48 1021.50 1021.29 1021.04 1020.98 1020.76 1020.55 1020.30 1019.95 1019.71 1019.91 1020.24 1020.42 1020.64 1020.78 1020.89 1020.86 1020.80 1020.64 1020.39 1020.14 1019.88 1019.75 1019.56 1019.36 1019.17 1018.78
1023.68 1023.81 1023.80 1023.73 1023.81 1023.72 1023.57 1023.36 1023.19 1023.02 1022.68 1022.48 1022.31 1022.13 1022.13 1021.85 1021.65 1021.54 1021.29 1021.20 1021.03 1020.72 1020.46 1020.30 1020.13 1020.09 1020.31 1020.53 1020.72 1020.87 1021.05 1021.34 1021.36 1021.26 1021.22 1021.06 1020.86 1020.63 1020.36 1020.06 1019.85 1019.54 1019.18
1024.01 1023.74 1023.72 1023.70 1023.70 1023.62 1023.36 1023.23 1023.09 1022.80 1022.63 1022.27 1022.27 1022.20 1022.41 1022.09 1021.59 1021.50 1021.53 1021.53 1021.02 1020.63 1020.54 1020.40 1020.46 1020.55 1020.85 1020.96 1021.14 1021.20 1021.19 1021.49 1021.82 1021.74 1021.62 1021.50 1021.29 1021.23 1020.91 1020.54 1020.27 1019.75 1019.58
1023.87 1023.77 1023.78 1023.80 1023.53 1023.48 1023.43 1023.23 1022.96 1022.72 1022.40 1022.33 1022.42 1022.33 1022.36 1022.06 1021.83 1021.72 1021.89 1021.69 1021.32 1021.05 1020.97 1020.80 1021.06 1021.19 1021.43 1021.45 1021.38 1021.31 1021.35 1021.51 1021.80 1022.05 1021.98 1021.81 1021.71 1021.57 1021.31 1020.91 1020.49 1020.17 1019.66
1023.84 1023.75 1023.76 1023.60 1023.62 1023.85 1023.53 1023.09 1022.70 1022.50 1022.50 1022.44 1022.36 1022.24 1022.20 1022.15 1022.15 1022.23 1022.47 1022.45 1022.17 1021.81 1021.61 1021.61 1021.67 1021.88 1021.87 1021.77 1021.48 1021.49 1021.73 1021.95 1022.36 1022.57 1022.28 1022.03 1022.02 1021.84 1021.79 1021.47 1020.63 1020.18 1019.78
1023.73 1023.67 1023.64 1023.69 1023.91 1023.84 1023.41 1022.80 1022.61 1022.67 1022.56 1022.49 1022.34 1022.26 1022.26 1022.25 1022.30 1022.53 1022.83 1022.94 1022.93 1022.67 1022.51 1022.44 1022.45 1022.47 1022.28 1022.00 1021.79 1021.86 1022.15 1022.38 1022.57 1022.65 1022.52 1022.12 1022.27 1021.95 1021.84 1021.79 1021.26 1020.68 1020.25
1023.57 1023.65 1023.67 1023.76 1023.82 1023.65 1023.17 1022.75 1022.81 1022.71 1022.63 1022.71 1022.45 1022.38 1022.47 1022.44 1022.44 1022.70 1022.96 1023.20 1023.38 1023.49 1023.39 1023.25 1023.17 1023.09 1022.80 1022.43 1022.21 1022.17 1022.32 1022.37 1022.44 1022.70 1022.93 1022.63 1022.46 1022.13 1022.06 1021.96 1021.84 1021.57 1021.27
1023.47 1023.60 1023.69 1023.69 1023.63 1023.50 1023.29 1022.83 1022.85 1022.79 1022.93 1022.95 1022.81 1022.65 1022.68 1022.78 1022.82 1022.99 1023.08 1023.24 1023.56 1023.94 1023.89 1023.87 1023.77 1023.62 1023.50 1023.31 1023.10 1023.09 1022.93 1022.82 1022.94 1023.12 1023.47 1023.26 1022.82 1022.62 1022.20 1022.16 1022.17 1022.14 1021.91
Thickness
5615 5616 5614 5614 5614 5613 5618 5618 5617 5618 5618 5618 5616 5617 5621 5624 5626 5627 5629 5632 5636 5639 5641 5643 5642 5643 5644 5644 5645 5645 5645 5645 5646 5646 5647 5646 5647 5646 5646 5646 5645 5643 5643
5610 5607 5610 5608 5606 5607 5610 5613 5612 5612 5612 5612 5611 5609 5613 5617 5620 5622 5622 5624 5628 5631 5634 5636 5636 5636 5637 5637 5638 5639 5639 5640 5640 5640 5641 5641 5641 5642 5641 5640 5641 5640 5638
5602 5601 5601 5599 5601 5600 5604 5604 5604 5605 5605 5605 5607 5606 5608 5611 5611 5614 5615 5618 5621 5624 5626 5629 5630 5630 5631 5632 5632 5633 5633 5634 5634 5635 5636 5636 5637 5635 5635 5634 5637 5635 5633
5594 5593 5593 5593 5593 5594 5597 5596 5597 5598 5598 5600 5602 5602 5604 5605 5607 5610 5611 5613 5613 5616 5618 5620 5621 5623 5624 5624 5625 5626 5627 5629 5630 5630 5631 5632 5633 5631 5629 5628 5630 5630 5628
5583 5585 5585 5585 5587 5588 5589 5588 5590 5590 5593 5595 5597 5599 5600 5600 5603 5605 5606 5608 5608 5611 5612 5613 5614 5615 5616 5617 5618 5619 5620 5623 5623 5624 5626 5628 5628 5628 5626 5625 5624 5624 5623
5573 5576 5577 5578 5580 5581 5582 5581 5583 5586 5586 5588 5592 5594 5595 5595 5596 5598 5601 5603 5604 5605 5605 5606 5608 5608 5608 5610 5610 5612 5612 5614 5616 5616 5618 5620 5621 5621 5621 5620 5621 5621 5619
5564 5564 5566 5569 5571 5573 5573 5575 5577 5579 5579 5580 5586 5589 5589 5590 5590 5591 5592 5595 5598 5596 5598 5599 5599 5600 5599 5600 5602 5603 5603 5605 5608 5607 5610 5611 5611 5613 5614 5614 5616 5616 5613
5554 5555 5558 5559 5561 5563 5564 5565 5568 5572 5570 5570 5575 5576 5582 5584 5583 5582 5584 5585 5588 5588 5589 5589 5590 5590 5590 5591 5594 5594 5594 5595 5598 5599 5601 5601 5602 5603 5604 5608 5609 5609 5609
5547 5547 5548 5550 5551 5553 5554 5555 5557 5559 5561 5562 5563 5567 5573 5573 5571 5575 5576 5576 5577 5578 5578 5578 5579 5581 5581 5581 5584 5586 5587 5587 5588 5590 5590 5591 5593 5594 5597 5599 5599 5600 5602
5538 5539 5539 5539 5542 5544 5545 5546 5547 5550 5553 5553 5554 5553 5553 5555 5560 5566 5568 5569 5567 5567 5567 5569 5570 5572 5571 5572 5574 5575 5577 5576 5578 5578 5580 5581 5583 5585 5588 5588 5590 5590 5592
5529 5529 5529 5529 5531 5533 5535 5537 5539 5540 5540 5541 5543 5543 5543 5544 5545 5546 5554 5559 5556 5556 5557 5557 5559 5561 5562 5562 5563 5564 5565 5565 5566 5568 5570 5571 5573 5575 5576 5576 5577 5578 5580
5519 5519 5520 5521 5522 5523 5525 5527 5528 5530 5531 5531 5531 5531 5533 5534 5535 5531 5535 5537 5536 5542 5544 5547 5548 5548 5548 5549 5549 5550 5551 5553 5554 5555 5557 5559 5560 5560 5561 5563 5564 5566 5569
5509 5509 5510 5511 5511 5511 5514 5517 5518 5518 5519 5521 5522 5522 5524 5524 5522 5521 5520 5522 5526 5534 5536 5535 5536 5536 5535 5535 5535 5535 5535 5537 5539 5541 5543 5544 5543 5544 5547 5550 5553 5555 5556
5497 5497 5499 5500 5501 5500 5502 5503 5506 5508 5509 5510 5511 5512 5513 5514 5512 5510 5509 5510 5515 5522 5524 5526 5525 5523 5520 5520 5520 5521 5521 5521 5523 5525 5526 5527 5528 5530 5534 5537 5539 5540 5543
5486 5487 5488 5490 5490 5489 5491 5492 5493 5496 5497 5499 5502 5503 5504 5504 5503 5502 5500 5498 5499 5505 5509 5512 5511 5509 5507 5507 5506 5506 5506 5505 5506 5508 5511 5513 5515 5517 5519 5521 5523 5526 5531
5473 5477 5476 5477 5478 5480 5479 5482 5482 5484 5485 5488 5490 5491 5492 5492 5491 5490 5489 5489 5488 5490 5494 5498 5498 5494 5493 5492 5491 5491 5491 5492 5493 5496 5501 5502 5502 5503 5503 5505 5508 5513 5516
5464 5463 5465 5466 5468 5466 5468 5471 5472 5473 5475 5477 5477 5480 5481 5480 5481 5481 5481 5481 5480 5479 5481 5483 5482 5479 5478 5478 5477 5477 5476 5478 5479 5483 5487 5487 5487 5488 5489 5490 5492 5496 5499
5452 5454 5454 5455 5455 5455 5456 5460 5460 5460 5462 5465 5466 5468 5470 5471 5473 5471 5472 5471 5470 5467 5469 5471 5469 5465 5465 5464 5464 5463 5462 5463 5466 5468 5471 5473 5473 5473 5474 5475 5475 5479 5482
5442 5443 5442 5443 5442 5444 5445 5447 5448 5448 5452 5454 5456 5458 5460 5461 5460 5457 5456 5455 5451 5450 5450 5451 5453 5454 5453 5450 5450 5450 5450 5451 5453 5454 5455 5457 5459 5460 5460 5462 5463 5464 5467
5433 5432 5433 5434 5433 5434 5435 5437 5438 5440 5444 5446 5447 5449 5446 5446 5445 5442 5440 5437 5436 5436 5437 5438 5440 5441 5439 5438 5438 5439 5440 5439 5440 5441 5441 5443 5444 5446 5446 5448 5449 5451 5454
5422 5425 5426 5427 5426 5426 5428 5428 5429 5433 5434 5438 5437 5436 5432 5431 5431 5427 5425 5422 5424 5427 5427 5428 5428 5428 5425 5425 5426 5428 5431 5430 5428 5430 5430 5430 5432 5432 5433 5434 5435 5439 5439
5416 5418 5419 5419 5421 5420 5418 5418 5421 5424 5427 5428 5425 5424 5419 5418 5417 5414 5411 5411 5413 5414 5414 5416 5414 5415 5413 5415 5417 5419 5421 5423 5424 5418 5419 5419 5418 5418 5419 5421 5423 5424 5427
5409 5410 5411 5413 5411 5406 5408 5410 5415 5417 5418 5417 5415 5413 5410 5407 5404 5401 5398 5397 5398 5400 5402 5403 5404 5403 5405 5407 5411 5412 5411 5411 5408 5405 5407 5409 5406 5407 5406 5407 5411 5414 5416
5402 5403 5404 5403 5399 5398 5401 5406 5408 5408 5408 5406 5404 5402 5399 5397 5394 5391 5388 5387 5387 5389 5391 5392 5392 5393 5395 5399 5401 5401 5399 5397 5396 5395 5395 5401 5395 5397 5395 5395 5397 5400 5401
5395 5395 5395 5394 5392 5394 5397 5400 5400 5400 5398 5394 5393 5391 5388 5387 5385 5383 5382 5380 5379 5378 5379 5380 5381 5383 5385 5388 5390 5391 5390 5390 5390 5386 5381 5384 5385 5386 5385 5384 5384 5384 5383
5388 5388 5387 5386 5387 5388 5390 5392 5392 5390 5386 5383 5382 5380 5379 5377 5377 5376 5377 5376 5374 5371 5371 5372 5372 5373 5374 5375 5376 5376 5376 5377 5375 5375 5369 5371 5373 5373 5378 5373 5371 5369 5368